Danville, IL

9:24 AM CDT on April 23, 2017 (GMT -0500)
Vermilion County

Weather History for KDNV - September, 2013

Change the Weather History Date:

Tuesday, September 3, 2013

  Actual Average (KCMI) Record (KCMI)
Temperature  
Mean Temperature 64 °F -  
Max Temperature 80 °F 80 °F 97 °F (2011)
Min Temperature 49 °F 56 °F -53 °F (1998)
Growing Degree Days 14 (Base 50)    
Moisture  
Dew Point 53 °F    
Average Humidity 73    
Maximum Humidity 94    
Minimum Humidity 40    
Precipitation  
Precipitation 0.00 in - - ()
Sea Level Pressure  
Sea Level Pressure 30.03 in    
Wind  
Wind Speed 2 mph (North)    
Max Wind Speed 6 mph    
Max Gust Speed -    
Visibility 7 miles    
Events      
Averages and records for this station are not official NWS values.
T = Trace of Precipitation, MM = Missing Value Source: NWS Daily Summary

Daily Weather History Graph

Daily Weather History Graph

Search for Another Location

Airport or City:

Trip Planner

Search our weather history database for the weather conditions in past years. The results will help you decide how hot, cold, wet, or windy it might be!

Date:

Astronomy

Sep. 03, 2013 Rise Set
Actual Time 6:20 AM CDT 7:18 PM CDT
Civil Twilight 5:52 AM CDT 7:46 PM CDT
Nautical Twilight 5:19 AM CDT 8:19 PM CDT
Astronomical Twilight 4:44 AM CDT 8:53 PM CDT
Moon 4:33 AM CDT (9/3) 6:05 PM CDT (9/3)
Length of Visible Light 13h 53m
Length of Day
12h 58m
Waning Crescent, 3% of the Moon is Illuminated
Sep 3
Waning Crescent
Sep 5
New
Sep 12
First Quarter
Sep 19
Full
Sep 26
Last Quarter

Hourly Weather History & Observations

Time (CDT) Temp. Heat Index Dew Point Humidity Pressure Visibility Wind Dir Wind Speed Gust Speed Precip Events Conditions
12:15 AM 59.0 °F - 52.0 °F 78% 29.95 in 7.0 mi NNE 4.6 mph - N/A   Clear
12:35 AM 58.5 °F - 51.4 °F 77% 29.95 in 7.0 mi NNE 4.6 mph - N/A   Clear
12:55 AM 57.7 °F - 51.1 °F 78% 29.96 in 7.0 mi NE 4.6 mph - N/A   Clear
1:15 AM 57.2 °F - 51.4 °F 81% 29.97 in 7.0 mi NNE 4.6 mph - N/A   Clear
1:35 AM 56.3 °F - 51.4 °F 84% 29.97 in 7.0 mi NNE 4.6 mph - N/A   Clear
1:55 AM 55.4 °F - 50.9 °F 85% 29.97 in 7.0 mi NNE 4.6 mph - N/A   Clear
2:15 AM 55.0 °F - 50.9 °F 86% 29.97 in 7.0 mi NNE 4.6 mph - N/A   Clear
2:35 AM 54.5 °F - 50.7 °F 87% 29.98 in 7.0 mi NNE 4.6 mph - N/A   Clear
2:55 AM 54.0 °F - 49.6 °F 85% 29.98 in 7.0 mi Calm Calm - N/A   Clear
3:15 AM 53.8 °F - 49.3 °F 85% 29.98 in 7.0 mi Calm Calm - N/A   Clear
3:35 AM 52.2 °F - 48.2 °F 86% 29.98 in 7.0 mi Calm Calm - N/A   Clear
3:55 AM 50.9 °F - 46.8 °F 86% 29.99 in 5.0 mi Calm Calm - N/A   Clear
4:15 AM 51.1 °F - 47.7 °F 88% 29.99 in 7.0 mi Calm Calm - N/A   Clear
4:35 AM 50.4 °F - 46.9 °F 88% 30.00 in 7.0 mi Calm Calm - N/A   Clear
4:55 AM 49.5 °F - 46.2 °F 89% 30.00 in 5.0 mi Calm Calm - N/A   Clear
5:15 AM 50.7 °F - 47.7 °F 89% 30.01 in 5.0 mi Calm Calm - N/A   Clear
5:35 AM 50.9 °F - 48.2 °F 90% 30.02 in 7.0 mi Calm Calm - N/A   Clear
5:55 AM 50.9 °F - 48.2 °F 90% 30.03 in 7.0 mi North 3.5 mph - N/A   Clear
6:15 AM 50.0 °F - 47.3 °F 90% 30.04 in 10.0 mi Calm Calm - N/A   Clear
6:35 AM 49.3 °F - 47.1 °F 92% 30.04 in 7.0 mi Calm Calm - N/A   Clear
6:55 AM 50.4 °F - 48.2 °F 92% 30.04 in 5.0 mi Calm Calm - N/A   Clear
7:15 AM 52.7 °F - 51.1 °F 94% 30.05 in 5.0 mi Calm Calm - N/A   Clear
7:35 AM 54.7 °F - 52.7 °F 93% 30.05 in 5.0 mi Calm Calm - N/A   Clear
7:55 AM 56.3 °F - 53.8 °F 91% 30.05 in 10.0 mi Calm Calm - N/A   Mostly Cloudy
8:15 AM 58.5 °F - 55.6 °F 90% 30.06 in 7.0 mi Calm Calm - N/A   Mostly Cloudy
8:35 AM 59.4 °F - 56.3 °F 90% 30.06 in 7.0 mi Calm Calm - N/A   Mostly Cloudy
8:55 AM 60.1 °F - 56.3 °F 87% 30.07 in 10.0 mi Calm Calm - N/A   Scattered Clouds
9:15 AM 63.5 °F - 58.5 °F 84% 30.07 in 7.0 mi Calm Calm - N/A   Scattered Clouds
9:35 AM 65.5 °F - 59.4 °F 81% 30.07 in 7.0 mi Calm Calm - N/A   Scattered Clouds
9:55 AM 67.6 °F - 59.5 °F 75% 30.07 in 7.0 mi Calm Calm - N/A   Clear
10:15 AM 69.1 °F - 59.7 °F 72% 30.07 in 7.0 mi SE 3.5 mph - N/A   Scattered Clouds
10:35 AM 71.6 °F - 63.3 °F 75% 30.08 in 5.0 mi Calm Calm - N/A   Haze
10:55 AM 72.9 °F - 65.7 °F 78% 30.08 in 7.0 mi Calm Calm - N/A   Clear
11:15 AM 73.9 °F - 62.1 °F 66% 30.08 in 7.0 mi Calm Calm - N/A   Scattered Clouds
11:35 AM 72.9 °F - 59.9 °F 64% 30.08 in 7.0 mi Calm Calm - N/A   Mostly Cloudy
11:55 AM 75.4 °F - 66.2 °F 73% 30.08 in 7.0 mi NNE 4.6 mph - N/A   Mostly Cloudy
12:15 PM 71.1 °F - 54.3 °F 55% 30.08 in 7.0 mi North 4.6 mph - N/A   Mostly Cloudy
12:35 PM 75.6 °F - 63.7 °F 66% 30.08 in 7.0 mi NE 3.5 mph - N/A   Scattered Clouds
12:55 PM 75.4 °F - 54.3 °F 48% 30.07 in 5.0 mi North 3.5 mph - N/A   Haze
1:15 PM 75.0 °F - 53.4 °F 47% 30.07 in 7.0 mi Calm Calm - N/A   Scattered Clouds
1:35 PM 74.5 °F - 54.3 °F 49% 30.06 in 7.0 mi Calm Calm - N/A   Mostly Cloudy
1:55 PM 78.8 °F - 56.7 °F 46% 30.05 in 5.0 mi East 3.5 mph - N/A   Haze
2:15 PM 76.8 °F - 53.6 °F 44% 30.05 in 7.0 mi North 4.6 mph - N/A   Scattered Clouds
2:35 PM 77.2 °F - 55.8 °F 47% 30.03 in 7.0 mi Calm Calm - N/A   Scattered Clouds
2:55 PM 77.7 °F - 55.4 °F 46% 30.03 in 7.0 mi Calm Calm - N/A   Scattered Clouds
3:15 PM 80.2 °F 81.1 °F 60.6 °F 51% 30.02 in 7.0 mi Calm Calm - N/A   Scattered Clouds
3:55 PM 78.8 °F - 52.3 °F 40% 30.02 in 10.0 mi WNW 3.5 mph - N/A   Clear
4:15 PM 78.8 °F - 52.5 °F 40% 30.02 in 10.0 mi North 5.8 mph - N/A   Clear
4:35 PM 78.8 °F - 53.8 °F 42% 30.02 in 10.0 mi NW 3.5 mph - N/A   Clear
4:55 PM 80.1 °F 80.1 °F 54.5 °F 41% 30.02 in 10.0 mi Calm Calm - N/A   Clear
5:35 PM 74.8 °F - 53.2 °F 47% 30.01 in 10.0 mi NW 4.6 mph - N/A   Clear
5:55 PM 74.7 °F - 54.1 °F 49% 30.01 in 7.0 mi Calm Calm - N/A   Clear
6:15 PM 73.8 °F - 53.8 °F 50% 30.01 in 10.0 mi WNW 3.5 mph - N/A   Clear
6:35 PM 73.4 °F - 54.5 °F 51% 30.01 in 7.0 mi Calm Calm - N/A   Clear
6:55 PM 71.8 °F - 54.9 °F 55% 30.01 in 7.0 mi Calm Calm - N/A   Clear
7:15 PM 67.3 °F - 52.9 °F 60% 30.02 in 7.0 mi Calm Calm - N/A   Clear
7:35 PM 64.0 °F - 53.6 °F 69% 30.02 in 7.0 mi Calm Calm - N/A   Clear
7:55 PM 61.0 °F - 51.4 °F 71% 30.02 in 7.0 mi Calm Calm - N/A   Clear
8:15 PM 59.4 °F - 52.2 °F 77% 30.03 in 7.0 mi Calm Calm - N/A   Clear
8:35 PM 58.1 °F - 50.2 °F 75% 30.03 in 10.0 mi North 4.6 mph - N/A   Clear
8:55 PM 57.7 °F - 51.8 °F 81% 30.04 in 7.0 mi North 5.8 mph - N/A   Clear
9:15 PM 57.4 °F - 52.3 °F 83% 30.04 in 10.0 mi North 5.8 mph - N/A   Clear
9:35 PM 56.8 °F - 52.0 °F 84% 30.04 in 10.0 mi North 3.5 mph - N/A   Clear
9:55 PM 55.0 °F - 49.5 °F 81% 30.04 in 7.0 mi NNE 4.6 mph - N/A   Clear
10:15 PM 55.8 °F - 49.8 °F 80% 30.04 in 7.0 mi Calm Calm - N/A   Clear
10:35 PM 54.5 °F - 48.2 °F 79% 30.05 in 10.0 mi Calm Calm - N/A   Clear
10:55 PM 53.1 °F - 47.1 °F 80% 30.05 in 7.0 mi Calm Calm - N/A   Clear
11:15 PM 52.2 °F - 46.4 °F 81% 30.04 in 7.0 mi Calm Calm - N/A   Clear
11:35 PM 51.4 °F - 45.9 °F 81% 30.05 in 7.0 mi Calm Calm - N/A   Clear
11:55 PM 51.1 °F - 45.7 °F 82% 30.05 in 7.0 mi Calm Calm - N/A   Clear